Regional Weather Roundup
Issued by NWS

Home | Current Version | Previous Version | Graphics & Text | Print | Product List | Glossary On
Versions: 1 2 3 4 5 6 7 8 9 10 11 12 13 14 15 16 17 18 19 20 21 22 23 24 25 26 27
000
ASUS45 KCYS 220510
RWRWY

WYOMING REGIONAL WEATHER ROUNDUP
NATIONAL WEATHER SERVICE CHEYENNE WY
1100 PM MDT MON APR 21 2014

NOTE:  "FAIR" INDICATES FEW OR NO CLOUDS BELOW 12,000 FEET
WITH NO SIGNIFICANT WEATHER AND/OR OBSTRUCTIONS TO VISIBILITY.

WYZ001-220600-
YELLOWSTONE NATIONAL PARK

CITY           SKY/WX    TMP DP  RH WIND       PRES   REMARKS
LK YELLOWSTONE   N/A     33  26  75 CALM      30.13F
W YELLOWSTONE  NOT AVBL

$$
WYZ002>013-054>058-071-098>099-220600-
NORTHERN WYOMING

CITY           SKY/WX    TMP DP  RH WIND       PRES   REMARKS
JACKSON        CLOUDY    46  25  42 W3        30.06F
CODY           MOCLDY    46  30  53 S6        30.00F
GREYBULL       MOCLDY    54  29  38 SE3       29.95F
WORLAND        PTCLDY    51  32  48 W6        29.97F
SHERIDAN         N/A     39  28  65 CALM        N/A
BUFFALO        CLOUDY    50  29  44 S6        30.05F
GILLETTE       PTCLDY    47  32  56 S13       30.05F
HULETT         FAIR      52  28  40 CALM      30.07
NEWCASTLE      FAIR      54  28  37 E14       30.09

$$
WYZ014>020-022>026-101>103-220600-
CENTRAL WYOMING

CITY           SKY/WX    TMP DP  RH WIND       PRES   REMARKS
BIG PINEY      MOCLDY    46  21  37 N6        30.10F
PINEDALE       MOCLDY    41  30  65 CALM      30.11F
DUBOIS         FAIR      43  19  39 NW12      30.10F
LANDER         MOCLDY    53  23  31 CALM      30.01F
RIVERTON       MOCLDY    53  18  25 E6        30.03F
CASPER         CLEAR     44  32  62 W3        30.06S
DOUGLAS        CLEAR     46  34  62 SE7       30.07F

$$
WYZ021-027>030-104>119-220600-
SOUTHERN WYOMING

CITY           SKY/WX    TMP DP  RH WIND       PRES   REMARKS
EVANSTON         N/A     51  25  36 SE8       30.08F
KEMMERER       CLOUDY    50  27  40 CALM      30.11F
FORT BRIDGER   FAIR      50  23  34 S12       30.12F
ROCK SPRINGS   PTCLDY    52  22  30 SE10      30.10F
DIXON          FAIR      46  29  50 CALM      30.16F
RAWLINS        MOCLDY    39  13  34 CALM      30.13F
SARATOGA       FAIR      39  23  52 S8        30.16F WCI  34
LARAMIE        PTCLDY    44  31  60 S14       30.16F
CHEYENNE       PTCLDY    50  31  48 SE15      30.15F
TORRINGTON     PTCLDY    52  32  46 SE13      30.08F
PINE BLUFFS    FAIR      52  30  43 SE20G25   30.14F

$$



USA.gov is the U.S. government's official web portal to all federal, state and local government web resources and services.